Marshfield, MA

4:51 AM EST on February 25, 2017 (GMT -0500)
Marshfield

Weather History for KGHG - June, 2013

Change the Weather History Date:

Friday, June 14, 2013

  Actual Average (KPYM) Record (KPYM)
Temperature  
Mean Temperature 61 °F -  
Max Temperature 69 °F 74 °F 94 °F (1988)
Min Temperature 53 °F 52 °F 38 °F (1970)
Degree Days  
Heating Degree Days 4    
Growing Degree Days 11 (Base 50)    
Moisture  
Dew Point 53 °F    
Average Humidity 83    
Maximum Humidity 100    
Minimum Humidity 49    
Precipitation  
Precipitation 1.05 in - - ()
Sea Level Pressure  
Sea Level Pressure 29.71 in    
Wind  
Wind Speed - (North)    
Max Wind Speed -    
Max Gust Speed -    
Visibility 7 miles    
Events Rain    
Averages and records for this station are not official NWS values.
T = Trace of Precipitation, MM = Missing Value Source: NWS Daily Summary

Daily Weather History Graph

Daily Weather History Graph

Search for Another Location

Airport or City:

Trip Planner

Search our weather history database for the weather conditions in past years. The results will help you decide how hot, cold, wet, or windy it might be!

Date:

Astronomy

Jun. 14, 2013 Rise Set
Actual Time 5:06 AM EDT 8:20 PM EDT
Civil Twilight 4:31 AM EDT 8:54 PM EDT
Nautical Twilight 3:47 AM EDT 9:39 PM EDT
Astronomical Twilight 2:53 AM EDT 10:32 PM EDT
Moon 10:43 AM EDT (6/14) 11:48 PM EDT (6/14)
Length of Visible Light 16h 22m
Length of Day
15h 13m
Waxing Crescent, 30% of the Moon is Illuminated
Jun 14
Waxing Crescent
Jun 16
First Quarter
Jun 23
Full
Jun 30
Last Quarter
Jul 8
New

Hourly Weather History & Observations

Time (EDT) Temp. Dew Point Humidity Pressure Visibility Wind Dir Wind Speed Gust Speed Precip Events Conditions
12:15 AM 55.4 °F 53.6 °F 94% 29.66 in 2.0 mi North - - 0.03 in Rain Heavy Rain
12:35 AM 55.4 °F 53.6 °F 94% 29.68 in 2.5 mi North - - 0.07 in Rain Heavy Rain
12:55 AM 55.4 °F 53.6 °F 94% 29.66 in 2.5 mi North - - 0.13 in Rain Heavy Rain
1:15 AM 55.4 °F 53.6 °F 94% 29.64 in 2.5 mi North - - 0.04 in Rain Rain
1:35 AM 55.4 °F 53.6 °F 94% 29.65 in 1.8 mi North - - 0.09 in Rain Heavy Rain
1:55 AM 55.4 °F 53.6 °F 94% 29.66 in 1.5 mi North - - 0.16 in Rain Heavy Rain
2:15 AM 55.4 °F 53.6 °F 94% 29.64 in 1.5 mi North - - 0.07 in Rain Heavy Rain
2:35 AM 53.6 °F 53.6 °F 100% 29.64 in 1.8 mi North - - 0.13 in Rain Heavy Rain
2:55 AM 53.6 °F 53.6 °F 100% 29.64 in 1.8 mi North - - 0.18 in Rain Heavy Rain
3:15 AM 53.6 °F 53.6 °F 100% 29.65 in 1.5 mi North - - 0.05 in Rain Heavy Rain
3:35 AM 53.6 °F 53.6 °F 100% 29.64 in 1.8 mi North - - 0.11 in Rain Heavy Rain
3:55 AM 53.6 °F 53.6 °F 100% 29.65 in 1.5 mi North - - 0.18 in Rain Heavy Rain
4:15 AM 53.6 °F 53.6 °F 100% 29.64 in 1.8 mi North - - 0.03 in Rain Heavy Rain
4:35 AM 53.6 °F 53.6 °F 100% 29.64 in 2.0 mi North - - 0.08 in Rain Rain
4:55 AM 53.6 °F 53.6 °F 100% 29.65 in 1.5 mi North - - 0.12 in Rain Rain
5:15 AM 53.6 °F 53.6 °F 100% 29.66 in 2.0 mi North - - 0.01 in Rain Light Rain
5:35 AM 53.6 °F 53.6 °F 100% 29.67 in 1.5 mi North - - 0.05 in Rain Rain
5:55 AM 53.6 °F 53.6 °F 100% 29.67 in 1.5 mi North - - 0.10 in Rain Heavy Rain
6:15 AM 53.6 °F 53.6 °F 100% 29.68 in 2.5 mi North - - 0.03 in Rain Rain
6:35 AM 53.6 °F 53.6 °F 100% 29.67 in 3.0 mi North - - 0.07 in Rain Rain
6:55 AM 53.6 °F 53.6 °F 100% 29.68 in 2.5 mi North - - 0.10 in Rain Rain
7:15 AM 55.4 °F 53.6 °F 94% 29.68 in 4.0 mi North - - 0.02 in Rain Light Rain
7:35 AM 55.4 °F 53.6 °F 94% 29.69 in 8.0 mi North - - 0.03 in Rain Light Rain
7:55 AM 55.4 °F 51.8 °F 88% 29.70 in 7.0 mi North - - 0.04 in Rain Rain
8:15 AM 55.4 °F 53.6 °F 94% 29.71 in 5.0 mi North - - 0.01 in Rain Light Rain
8:35 AM 53.6 °F 51.8 °F 94% 29.71 in 5.0 mi North - - 0.03 in Rain Rain
8:55 AM 53.6 °F 51.8 °F 94% 29.71 in 10.0 mi North - - 0.04 in Rain Light Rain
9:15 AM 55.4 °F 53.6 °F 94% 29.71 in 10.0 mi North - - N/A   Light Drizzle
9:35 AM 55.4 °F 51.8 °F 88% 29.71 in 10.0 mi North - - N/A   Partly Cloudy
9:55 AM 57.2 °F 51.8 °F 82% 29.70 in 10.0 mi North - - N/A   Partly Cloudy
10:15 AM 57.2 °F 53.6 °F 88% 29.70 in 10.0 mi North - - N/A   Partly Cloudy
10:35 AM 59.0 °F 53.6 °F 82% 29.70 in 10.0 mi North - - N/A   Partly Cloudy
10:55 AM 59.0 °F 53.6 °F 82% 29.70 in 10.0 mi North - - N/A   Partly Cloudy
11:15 AM 59.0 °F 53.6 °F 82% 29.71 in 8.0 mi North - - N/A   Scattered Clouds
11:35 AM 59.0 °F 53.6 °F 82% 29.72 in 10.0 mi North - - N/A   Partly Cloudy
11:55 AM 59.0 °F 53.6 °F 82% 29.72 in 10.0 mi North - - N/A   Scattered Clouds
12:15 PM 60.8 °F 53.6 °F 77% 29.72 in 10.0 mi North - - N/A   Partly Cloudy
12:35 PM 60.8 °F 51.8 °F 72% 29.73 in 10.0 mi North - - N/A   Scattered Clouds
12:55 PM 60.8 °F 51.8 °F 72% 29.73 in 10.0 mi North - - N/A   Mostly Cloudy
1:15 PM 62.6 °F 51.8 °F 68% 29.73 in 10.0 mi North - - N/A   Mostly Cloudy
1:35 PM 62.6 °F 50.0 °F 63% 29.74 in 10.0 mi North - - N/A   Scattered Clouds
1:55 PM 62.6 °F 50.0 °F 63% 29.74 in 10.0 mi North - - N/A   Mostly Cloudy
2:15 PM 64.4 °F 48.2 °F 56% 29.73 in 10.0 mi North - - N/A   Scattered Clouds
2:35 PM 64.4 °F 48.2 °F 56% 29.73 in 10.0 mi North - - N/A   Scattered Clouds
2:55 PM 64.4 °F 48.2 °F 56% 29.74 in 10.0 mi North - - N/A   Partly Cloudy
3:15 PM 64.4 °F 48.2 °F 56% 29.74 in 10.0 mi North - - N/A   Clear
3:35 PM 64.4 °F 46.4 °F 52% 29.73 in 10.0 mi North - - N/A   Partly Cloudy
3:55 PM 64.4 °F 46.4 °F 52% 29.73 in 10.0 mi North - - N/A   Clear
4:15 PM 66.2 °F 48.2 °F 52% 29.72 in 10.0 mi North - - N/A   Clear
4:35 PM 66.2 °F 48.2 °F 52% 29.72 in 10.0 mi North - - N/A   Clear
4:55 PM 69.8 °F 50.0 °F 49% 29.71 in 10.0 mi North - - N/A   Clear
5:15 PM 69.8 °F 51.8 °F 53% 29.71 in 10.0 mi North - - N/A   Clear
5:35 PM 66.2 °F 51.8 °F 60% 29.72 in 10.0 mi North - - N/A   Clear
5:55 PM 64.4 °F 50.0 °F 59% 29.72 in 10.0 mi North - - N/A   Clear
6:15 PM 64.4 °F 51.8 °F 64% 29.72 in 10.0 mi North - - N/A   Clear
6:35 PM 64.4 °F 51.8 °F 64% 29.72 in 10.0 mi North - - N/A   Clear
6:55 PM 64.4 °F 51.8 °F 64% 29.73 in 10.0 mi North - - N/A   Clear
7:15 PM 62.6 °F 51.8 °F 68% 29.73 in 10.0 mi North - - N/A   Clear
7:35 PM 62.6 °F 53.6 °F 72% 29.73 in 10.0 mi North - - N/A   Clear
7:55 PM 60.8 °F 55.4 °F 82% 29.73 in 10.0 mi North - - N/A   Clear
8:15 PM 59.0 °F 55.4 °F 88% 29.73 in 10.0 mi North - - N/A   Clear
8:35 PM 57.2 °F 55.4 °F 94% 29.74 in 10.0 mi North - - N/A   Clear
8:55 PM 55.4 °F 53.6 °F 94% 29.74 in 10.0 mi North - - N/A   Clear
9:15 PM 57.2 °F 55.4 °F 94% 29.74 in 10.0 mi North - - N/A   Clear
9:35 PM 57.2 °F 55.4 °F 94% 29.75 in 10.0 mi North - - N/A   Clear
9:55 PM 55.4 °F 55.4 °F 100% 29.75 in 10.0 mi North - - N/A   Clear
10:15 PM 55.4 °F 55.4 °F 100% 29.75 in 10.0 mi North - - N/A   Scattered Clouds
10:35 PM 57.2 °F 55.4 °F 94% 29.74 in 10.0 mi North - - N/A   Mostly Cloudy
10:55 PM 57.2 °F 57.2 °F 100% 29.74 in 10.0 mi North - - N/A   Scattered Clouds
11:15 PM 60.8 °F 57.2 °F 88% 29.75 in 10.0 mi North - - N/A   Scattered Clouds
11:35 PM 62.6 °F 57.2 °F 82% 29.77 in 10.0 mi North - - N/A   Mostly Cloudy
11:55 PM 64.4 °F 55.4 °F 73% 29.77 in 10.0 mi North - - N/A   Mostly Cloudy